| time (UTC) | temp F | wind direction | speed knots | gust knots | rain 1hr in | rain 24hr in | rain mn in | humidity % | barometer mb |
| 20260507223047 | 60 | 280 | 1.7 | 3.5 | 0.00 | 0.16 | 0.12 | 33 | 1013.8 |
| 20260507221544 | 60 | 218 | 0.9 | 3.5 | 0.00 | 0.16 | 0.12 | 33 | 1013.7 |
| 20260507220042 | 61 | 211 | 0.9 | 5.2 | 0.00 | 0.16 | 0.12 | 33 | 1013.5 |
| 20260507214542 | 61 | 273 | 1.7 | 3.5 | 0.00 | 0.17 | 0.12 | 32 | 1013.3 |
| 20260507213048 | 62 | 209 | 2.6 | 7.0 | 0.00 | 0.17 | 0.12 | 31 | 1013.2 |
| 20260507211541 | 63 | 257 | 1.7 | 4.3 | 0.00 | 0.17 | 0.12 | 33 | 1013.2 |
| 20260507210107 | 63 | 205 | 0.9 | 14.8 | 0.00 | 0.17 | 0.12 | 33 | 1013.2 |
| 20260507204539 | 62 | 197 | 0.9 | 5.2 | 0.00 | 0.17 | 0.12 | 33 | 1013.3 |
| 20260507203039 | 63 | 178 | 3.5 | 7.0 | 0.00 | 0.17 | 0.12 | 31 | 1013.1 |
| 20260507201538 | 63 | 217 | 2.6 | 7.8 | 0.00 | 0.17 | 0.12 | 31 | 1013.2 |
| 20260507200051 | 64 | 241 | 0.9 | 3.5 | 0.00 | 0.17 | 0.12 | 30 | 1013.2 |
| 20260507194536 | 63 | 295 | 2.6 | 6.1 | 0.00 | 0.17 | 0.12 | 30 | 1013.4 |
| 20260507193101 | 63 | 200 | 2.6 | 6.1 | 0.00 | 0.17 | 0.12 | 32 | 1013.4 |
| 20260507191533 | 63 | 227 | 1.7 | 5.2 | 0.00 | 0.17 | 0.12 | 31 | 1013.6 |
| 20260507190037 | 63 | 211 | 1.7 | 5.2 | 0.00 | 0.17 | 0.12 | 31 | 1013.6 |
| 20260507184529 | 63 | 273 | 1.7 | 7.0 | 0.00 | 0.17 | 0.12 | 33 | 1013.7 |
| 20260507183038 | 63 | 240 | 1.7 | 4.3 | 0.00 | 0.17 | 0.12 | 34 | 1013.9 |
| 20260507181526 | 63 | 223 | 1.7 | 7.0 | 0.00 | 0.17 | 0.12 | 35 | 1014.0 |
| 20260507180125 | 62 | 213 | 2.6 | 6.1 | 0.00 | 0.17 | 0.12 | 38 | 1014.1 |
| 20260507174524 | 62 | 218 | 3.5 | 7.8 | 0.00 | 0.17 | 0.12 | 37 | 1014.2 |
| 20260507173023 | 61 | 308 | 0.9 | 7.0 | 0.00 | 0.17 | 0.12 | 42 | 1014.1 |
| 20260507171520 | 60 | 209 | 2.6 | 6.1 | 0.00 | 0.17 | 0.12 | 47 | 1014.2 |
| 20260507170018 | 61 | 183 | 1.7 | 5.2 | 0.00 | 0.17 | 0.12 | 51 | 1014.4 |
| 20260507164517 | 60 | 201 | 1.7 | 4.3 | 0.00 | 0.17 | 0.12 | 52 | 1014.5 |
| 20260507163017 | 60 | 205 | 2.6 | 7.0 | 0.00 | 0.17 | 0.12 | 50 | 1014.7 |
| 20260507161519 | 60 | 188 | 0.9 | 6.1 | 0.00 | 0.17 | 0.12 | 52 | 1014.8 |
| 20260507160021 | 59 | 292 | 2.6 | 7.8 | 0.00 | 0.17 | 0.12 | 55 | 1015.0 |
| 20260507154513 | 58 | 130 | 1.7 | 6.1 | 0.00 | 0.17 | 0.12 | 56 | 1015.3 |
| 20260507153018 | 59 | 192 | 0.0 | 3.5 | 0.00 | 0.17 | 0.12 | 55 | 1015.2 |
| 20260507151509 | 58 | 204 | 0.9 | 3.5 | 0.00 | 0.17 | 0.12 | 56 | 1015.4 |
| 20260507150010 | 59 | 223 | 2.6 | 5.2 | 0.00 | 0.17 | 0.12 | 53 | 1015.6 |
| 20260507144515 | 58 | 214 | 0.9 | 8.7 | 0.00 | 0.17 | 0.12 | 54 | 1015.8 |
| 20260507143007 | 58 | 198 | 1.7 | 5.2 | 0.00 | 0.17 | 0.12 | 56 | 1015.7 |
| 20260507141504 | 57 | 246 | 0.9 | 2.6 | 0.00 | 0.17 | 0.12 | 57 | 1015.7 |
| 20260507140002 | 56 | 305 | 0.9 | 2.6 | 0.00 | 0.17 | 0.12 | 62 | 1015.8 |
| 20260507134502 | 55 | 313 | 0.9 | 2.6 | 0.00 | 0.17 | 0.12 | 65 | 1015.7 |
| 20260507133111 | 54 | 219 | 1.7 | 3.5 | 0.01 | 0.17 | 0.12 | 66 | 1015.9 |
| 20260507131603 | 54 | 279 | 0.9 | 3.5 | 0.01 | 0.17 | 0.12 | 69 | 1016.1 |
| 20260507130058 | 52 | 259 | 1.7 | 3.5 | 0.01 | 0.17 | 0.12 | 74 | 1016.1 |
| 20260507124558 | 51 | 219 | 0.9 | 2.6 | 0.01 | 0.17 | 0.12 | 82 | 1016.2 |
| 20260507123055 | 50 | 227 | 0.9 | 2.6 | 0.01 | 0.16 | 0.11 | 86 | 1016.1 |
| 20260507121553 | 48 | 227 | 0.9 | 1.7 | 0.01 | 0.16 | 0.11 | 87 | 1016.2 |
| 20260507120053 | 47 | 222 | 0.9 | 2.6 | 0.01 | 0.16 | 0.11 | 88 | 1016.0 |
| 20260507114558 | 47 | 225 | 0.0 | 1.7 | 0.02 | 0.16 | 0.11 | 88 | 1016.1 |
| 20260507113052 | 47 | 225 | 0.0 | 1.7 | 0.02 | 0.15 | 0.10 | 87 | 1016.0 |
| 20260507111559 | 47 | 225 | 0.0 | 0.9 | 0.02 | 0.15 | 0.10 | 88 | 1015.7 |
| 20260507110050 | 47 | 225 | 0.0 | 0.0 | 0.03 | 0.15 | 0.10 | 88 | 1015.8 |
| 20260507104549 | 47 | 225 | 0.0 | 1.7 | 0.03 | 0.14 | 0.09 | 88 | 1016.1 |
| 20260507103047 | 47 | 226 | 0.9 | 1.7 | 0.03 | 0.13 | 0.08 | 88 | 1015.8 |
| 20260507101601 | 47 | 234 | 0.0 | 0.9 | 0.04 | 0.13 | 0.08 | 88 | 1015.6 |
| 20260507100043 | 47 | 234 | 0.0 | 0.9 | 0.03 | 0.12 | 0.07 | 88 | 1015.3 |
| 20260507094543 | 48 | 234 | 0.0 | 1.7 | 0.03 | 0.11 | 0.06 | 88 | 1015.2 |
| 20260507093044 | 48 | 215 | 0.9 | 2.6 | 0.02 | 0.10 | 0.05 | 88 | 1015.3 |
| 20260507091539 | 49 | 207 | 0.9 | 2.6 | 0.02 | 0.09 | 0.04 | 88 | 1015.2 |
| 20260507090033 | 50 | 205 | 0.0 | 2.6 | 0.02 | 0.09 | 0.04 | 88 | 1015.4 |
| 20260507084531 | 50 | 167 | 0.9 | 2.6 | 0.02 | 0.08 | 0.03 | 87 | 1015.2 |
| 20260507083030 | 50 | 163 | 0.0 | 0.9 | 0.03 | 0.08 | 0.03 | 87 | 1015.1 |
| 20260507081535 | 51 | 163 | 0.0 | 1.7 | 0.02 | 0.07 | 0.02 | 87 | 1014.7 |
| 20260507080026 | 51 | 236 | 0.9 | 1.7 | 0.02 | 0.07 | 0.02 | 86 | 1014.9 |
| 20260507074524 | 52 | 236 | 0.9 | 1.7 | 0.00 | 0.05 | 0.00 | 84 | 1014.8 |
| 20260507073021 | 52 | 236 | 0.9 | 2.6 | 0.00 | 0.05 | 0.00 | 83 | 1014.2 |
| 20260507071523 | 52 | 248 | 0.9 | 1.7 | 0.00 | 0.05 | 0.00 | 82 | 1014.3 |
| 20260507070019 | 53 | 247 | 0.9 | 1.7 | 0.00 | 0.05 | 0.00 | 82 | 1014.2 |
| 20260507064517 | 53 | 246 | 0.9 | 2.6 | 0.00 | 0.05 | 0.00 | 84 | 1014.3 |
| 20260507063015 | 53 | 238 | 0.9 | 2.6 | 0.00 | 0.05 | 0.00 | 85 | 1014.3 |
| 20260507061512 | 54 | 215 | 0.9 | 1.7 | 0.00 | 0.05 | 0.00 | 86 | 1013.9 |
| 20260507060011 | 55 | 290 | 0.9 | 3.5 | 0.00 | 0.05 | 0.00 | 87 | 1014.3 |
| 20260507054510 | 55 | 275 | 0.9 | 6.1 | 0.00 | 0.05 | 0.00 | 87 | 1014.6 |
| 20260507053009 | 55 | 220 | 0.9 | 2.6 | 0.00 | 0.05 | 0.00 | 87 | 1014.4 |
| 20260507051506 | 55 | 187 | 0.0 | 3.5 | 0.00 | 0.05 | 0.00 | 86 | 1014.1 |
| 20260507050008 | 56 | 217 | 0.9 | 2.6 | 0.00 | 0.05 | 0.00 | 87 | 1014.2 |
| 20260507044600 | 58 | 204 | 0.9 | 4.3 | 0.01 | 0.05 | 0.00 | 86 | 1014.2 |
| 20260507043102 | 58 | 203 | 1.7 | 3.5 | 0.01 | 0.05 | 0.00 | 86 | 1014.1 |
| 20260507041605 | 58 | 194 | 0.9 | 3.5 | 0.01 | 0.05 | 0.00 | 86 | 1014.1 |
| 20260507040057 | 58 | 201 | 1.7 | 7.0 | 0.01 | 0.05 | 0.00 | 86 | 1014.4 |
| 20260507034557 | 59 | 207 | 0.0 | 3.5 | 0.00 | 0.04 | 0.04 | 86 | 1014.4 |
| 20260507033053 | 59 | 197 | 4.3 | 8.7 | 0.00 | 0.04 | 0.04 | 87 | 1014.2 |
| 20260507031551 | 59 | 197 | 3.5 | 7.8 | 0.00 | 0.04 | 0.04 | 87 | 1013.7 |
| 20260507030056 | 58 | 203 | 1.7 | 7.8 | 0.00 | 0.04 | 0.04 | 87 | 1013.4 |
| 20260507024548 | 58 | 204 | 1.7 | 7.8 | 0.00 | 0.04 | 0.04 | 86 | 1013.7 |
| 20260507023101 | 58 | 202 | 1.7 | 6.1 | 0.00 | 0.04 | 0.04 | 86 | 1013.8 |
| 20260507021552 | 58 | 202 | 1.7 | 7.8 | 0.00 | 0.04 | 0.04 | 87 | 1013.8 |
| 20260507020046 | 58 | 184 | 1.7 | 6.1 | 0.00 | 0.04 | 0.04 | 87 | 1013.7 |
| 20260507014557 | 58 | 208 | 0.9 | 8.7 | 0.00 | 0.04 | 0.04 | 86 | 1013.9 |
| 20260507013103 | 57 | 223 | 2.6 | 8.7 | 0.00 | 0.04 | 0.04 | 87 | 1013.8 |
| 20260507011544 | 57 | 212 | 1.7 | 9.6 | 0.00 | 0.04 | 0.04 | 87 | 1014.1 |
| 20260507010042 | 57 | 194 | 2.6 | 8.7 | 0.00 | 0.04 | 0.04 | 87 | 1014.2 |
| 20260507004541 | 57 | 137 | 0.0 | 6.1 | 0.01 | 0.04 | 0.04 | 87 | 1014.1 |
| 20260507003040 | 57 | 190 | 1.7 | 7.8 | 0.01 | 0.04 | 0.04 | 87 | 1014.2 |
| 20260507001555 | 57 | 190 | 2.6 | 7.8 | 0.02 | 0.04 | 0.04 | 87 | 1013.9 |
| 20260507000039 | 58 | 215 | 1.7 | 9.6 | 0.01 | 0.03 | 0.03 | 87 | 1013.7 |
| 20260506234537 | 58 | 143 | 1.7 | 4.3 | 0.01 | 0.03 | 0.03 | 87 | 1014.0 |
| 20260506233043 | 58 | 145 | 0.9 | 2.6 | 0.02 | 0.03 | 0.03 | 87 | 1013.9 |
| 20260506231539 | 59 | 175 | 1.7 | 7.0 | 0.01 | 0.02 | 0.02 | 87 | 1013.8 |
| 20260506230033 | 59 | 162 | 0.9 | 7.0 | 0.01 | 0.02 | 0.02 | 87 | 1013.9 |
| 20260506224531 | 59 | 130 | 2.6 | 7.0 | 0.01 | 0.02 | 0.02 | 86 | 1014.1 |